{"data":{"norad_id":66645,"intl_designator":"2025-272A","name":"SHENZHOU-22","alt_names":[],"object_type":"PAYLOAD","status":"ACTIVE","operator":null,"country":"PRC","launch_date":"2025-11-25","launch_site_code":"JSC","launch_vehicle":null,"mission":null,"orbit_class":"UNKNOWN","rcs_meters":null,"size_class":null,"mass_kg":null,"dimensions":null,"purposes":["station"],"wikipedia_slug":null,"has_3d_model":false,"image_url":null,"decayed_at":null,"tle_current":{"epoch":"2026-05-25T03:02:10.928832Z","epoch_age_seconds":64184,"freshness":"FRESH","line1":"1 66645U 25272A   26145.12651538  .00014225  00000+0  17567-3 0  9996","line2":"2 66645  41.4679 102.2354 0011060 276.8418  83.1162 15.59799573289618","mean_motion":15.59799573,"eccentricity":0.001106,"inclination_deg":41.4679,"raan_deg":102.2354,"arg_perigee_deg":276.8418,"mean_anomaly_deg":83.1162,"bstar":0.00017567,"rev_number":28961,"period_min":92.319553417393,"perigee_km":380.75304116933,"apogee_km":395.72025968408,"semimajor_km":6766.3736504267,"source":"CELESTRAK","updated_at":"2026-05-25T13:38:08.448281Z"}}}